www.pogodaiklimat.ru
Время
(UTC), дата
01 28.05
02 28.05
03 28.05
04 28.05
05 28.05
06 28.05
07 28.05
08 28.05
09 28.05
10 28.05
11 28.05
12 28.05
13 28.05
14 28.05
15 28.05
16 28.05
17 28.05
18 28.05
19 28.05
20 28.05
21 28.05
22 28.05
23 28.05
00 29.05
01 29.05
02 29.05
03 29.05
04 29.05
05 29.05
06 29.05
07 29.05
08 29.05
09 29.05
10 29.05
11 29.05
12 29.05
13 29.05
14 29.05
15 29.05
16 29.05
17 29.05
18 29.05
19 29.05
20 29.05
21 29.05
22 29.05
23 29.05
00 30.05
01 30.05
02 30.05
03 30.05
04 30.05
05 30.05
06 30.05
07 30.05
08 30.05
09 30.05
10 30.05
11 30.05
12 30.05
13 30.05
14 30.05
15 30.05
16 30.05
17 30.05
18 30.05
19 30.05
20 30.05
21 30.05
22 30.05
23 30.05
00 31.05
01 31.05
02 31.05
03 31.05
04 31.05
05 31.05
06 31.05
07 31.05
08 31.05
09 31.05
10 31.05
11 31.05
12 31.05
13 31.05
14 31.05
15 31.05
16 31.05
17 31.05
18 31.05
19 31.05
20 31.05
21 31.05
22 31.05
23 31.05
00 1.06
01 1.06
02 1.06
03 1.06
04 1.06
05 1.06
06 1.06
07 1.06
08 1.06
09 1.06
10 1.06
11 1.06
12 1.06
13 1.06
14 1.06
15 1.06
16 1.06
17 1.06
18 1.06
19 1.06
20 1.06
21 1.06
22 1.06
23 1.06
00 2.06
01 2.06
02 2.06
03 2.06
04 2.06
05 2.06
06 2.06
07 2.06
08 2.06
09 2.06
10 2.06
11 2.06
12 2.06
13 2.06
14 2.06
15 2.06
16 2.06
17 2.06
18 2.06
19 2.06
20 2.06
21 2.06
22 2.06
23 2.06
00 3.06
01 3.06
02 3.06
03 3.06
04 3.06
05 3.06
06 3.06
07 3.06
08 3.06
09 3.06
10 3.06
11 3.06
12 3.06
13 3.06
14 3.06
15 3.06
16 3.06
17 3.06
18 3.06
19 3.06
20 3.06
21 3.06
22 3.06
23 3.06
Ветер
(напр.,м/с)
Видим. Явления Облачность Т
(С)
Тd
(С)
f
(%)
Тe
(С)
Тes
(С)
Комфортность P
(гПа)
Po
(гПа)
Тmin
(С)
Tmax
(С)
R
(мм)
R24
(мм)
S
(см)
С 5-8
{8}
50 км 9/0
[Ac trans]
+14.9 +5.9 55 +14 +14 тепло 1032.4 1020.3
С 5-7
{9}
50 км 1/1 1500 м
[Sc Ac trans]
+12.7 +4.3 57 +11 +11 тепло 1032.7 1020.5
С 3 50 км 1/1 1500 м
[Sc]
+11.1 +4.5 64 +9 +9 по сезону 1033.0 1020.8
С 3-4
{5}
50 км 1/1 1500 м
[Sc]
+9.6 +5.2 74 +7 +8 по сезону 1033.5 1021.2
С 3-4
{6}
45 км ясно +10.2 +5.8 74 +8 +9 тепло 1033.8 1021.5
С 5 40 км 1/1 600 м
[Cu hum]
+11.8 +6.5 70 +9 +11 по сезону 1033.6 1021.4 +9.1 +22.2
С 3-6
{6}
40 км 1/1 750 м
[Cu hum]
+13.6 +6.3 61 +13 +17 тепло 1033.7 1021.6
С 4-6
{6}
45 км 1/1 1140 м
[Cu hum]
+15.8 +5.4 50 +15 +21 тепло 1033.2 1021.2
СВ 4 45 км 1/1 1500 м
[Cu hum]
+17.7 +4.4 41 +17 +25 тепло 1033.0 1021.1
СВ 6-8
{9}
50 км 1/1 1500 м
[Cu hum]
+18.6 +2.6 34 +18 +24 тепло 1032.6 1020.7
С 5-8
{11}
55 км ясно +18.6 +2.6 34 +18 +27 тепло 1032.0 1020.1
СВ 5 60 км 1/0
[Ci fib]
+20.2 +2.1 30 +20 +29 тепло 1031.4 1019.6
С 6-8
{9}
60 км 1/0
[Ci fib]
+20.9 +1.7 28 +21 +27 комфорт 1031.1 1019.3
СВ 5-9
{10}
65 км 1/0
[Ci fib]
+20.9 +0.8 26 +21 +28 комфорт 1030.6 1018.8
С 6 65 км 1/0
[Ci fib]
+21.4 +2.0 28 +21 +25 комфорт 1030.1 1018.3
СВ 7-8
{10}
65 км 1/0
[Ci sp]
+21.0 +1.0 26 +21 +22 комфорт 1029.6 1017.8
С 5-8
{10}
65 км 1/0
[Ac trans Ci sp]
+20.8 +1.4 28 +21 +23 комфорт 1029.2 1017.4
С 6 60 км 1/0
[Ac trans Ci sp]
+19.9 +1.8 30 +20 +20 тепло 1029.0 1017.2 +11.8 +22.2
С 5-6
{8}
60 км 1/0
[Ac trans]
+18.3 +2.5 35 +18 +18 тепло 1029.2 1017.3
С 4-6
{6}
60 км 1/0
[Ac As]
+15.7 +2.9 42 +15 +15 тепло 1029.6 1017.6
СВ 3 60 км 1/0
[Ac As]
+12.6 +3.6 54 +11 +11 тепло 1029.8 1017.7
СВ 3-4
{5}
60 км 1/0
[Ac As]
+10.5 +3.5 62 +9 +9 по сезону 1030.0 1017.8
В 2-3
{3}
50 км ясно +10.0 +3.5 64 +9 +9 тепло 1030.0 1017.8
ЮВ 1 50 км ясно +9.5 +3.2 65 +9 +9 тепло 1029.9 1017.6
Ю 1-2
{3}
55 км ясно +7.7 +3.1 73 +7 +7 тепло 1029.9 1017.6
Ю 1-1
{2}
55 км ясно +5.8 +2.6 80 +5 +5 тепло 1029.9 1017.5
Ю 1 50 км 1/0
[Ci fib]
+6.7 +3.4 79 +6 +6 по сезону 1029.7 1017.3
ЮВ 2-3
{3}
50 км 1/0
[Ci fib]
+5.4 +3.2 86 +3 +3 по сезону 1029.5 1017.1
Ю 2-3
{3}
50 км ясно +7.2 +4.0 80 +5 +6 тепло 1029.6 1017.2
Ю 1 50 км 1/0
[Ci fib]
+11.7 +4.7 62 +12 +15 тепло 1029.5 1017.3 +4.9 +19.9
Ю 1-2
{2}
50 км 1/0
[Ci fib]
+14.5 +5.5 55 +15 +22 тепло 1029.2 1017.2
ЮВ 1-2
{5}
50 км 1/1 1140 м
[Cu hum Ci fib]
+17.2 +6.1 48 +18 +28 тепло 1028.8 1016.9
ЮЗ 2 50 км 1/1 1500 м
[Cu hum Ci fib]
+18.3 +4.6 40 +19 +30 тепло 1028.4 1016.5
В 2-4
{6}
55 км 1/1 1500 м
[Cu hum Ci fib]
+20.2 +2.9 32 +21 +35 комфорт 1027.9 1016.1
С 2-5
{6}
60 км 1/1 1500 м
[Cu hum Ci fib]
+21.0 +3.1 31 +22 +37 комфорт 1027.3 1015.5
СВ 3 60 км 1/1 2000 м
[Cu hum Ci fib]
+21.0 +2.2 29 +22 +34 комфорт 1026.4 1014.7
В 3-6
{9}
60 км 3/1 2000 м
[Cu hum Ci fib]
+22.3 +2.9 28 +22 +33 комфорт 1025.5 1013.8
СВ 2-7
{7}
60 км 3/3 2000 м
[Sc diur, vesp Ci fib]
+23.1 +2.4 26 +23 +32 комфорт 1024.7 1013.1
СВ 2 60 км 3/1 2000 м
[Cu hum Ac cuf Ci fib]
+22.5 +2.7 27 +22 +30 комфорт 1024.1 1012.4
В 3-4
{6}
60 км 3/1 2000 м
[Cu hum Ac cuf]
+22.0 +4.2 31 +22 +26 комфорт 1023.6 1011.9
СВ 3-4
{8}
60 км 3/0
[Ac cuf]
+22.9 +3.7 29 +23 +25 комфорт 1023.1 1011.5
СВ 5 60 км 3/0
[Ac cuf]
+22.2 +2.0 26 +22 +22 комфорт 1022.9 1011.2 +11.8 +24.2
СВ 4-6
{7}
65 км 1/0
[Ac cuf]
+20.3 +1.4 28 +21 +21 комфорт 1022.9 1011.2
В 4-4
{7}
70 км 1/0
[Ac trans Ci fib]
+18.6 +1.9 33 +19 +19 тепло 1023.5 1011.7
В 3 70 км 1/0
[Ci fib]
+16.2 +2.3 39 +16 +16 тепло 1023.9 1012.0
В 3-4
{4}
65 км 1/0
[Ci fib]
+15.0 +2.5 43 +14 +14 тепло 1024.3 1012.3
ЮВ 2-3
{4}
65 км ясно +14.4 +2.8 46 +14 +14 тепло 1024.4 1012.4
В 2 65 км ясно +11.4 +2.9 56 +11 +11 по сезону 1024.6 1012.5
ЮВ 3-3
{3}
60 км ясно +12.3 +3.0 53 +11 +11 по сезону 1024.6 1012.5
Ю 1-2
{3}
60 км ясно +11.4 +2.9 56 +12 +12 тепло 1024.7 1012.6
ЮЗ 1 60 км 1/1 2000 м
[Sc]
+6.4 +2.4 76 +6 +6 холодно 1024.9 1012.6
Ю 1-1
{2}
65 км 1/1 2000 м
[Sc]
+6.5 +2.8 77 +6 +6 прохладно 1024.9 1012.6
Ю 1-2
{2}
65 км ясно +9.6 +4.0 68 +9 +11 по сезону 1024.7 1012.5
ЮВ 1 70 км ясно +15.2 +4.9 50 +16 +20 тепло 1024.6 1012.6 +5.8 +22.2
ЮВ 2-4
{6}
70 км ясно +17.3 +4.2 42 +18 +24 тепло 1024.6 1012.7
В 4-6
{7}
70 км 1/1 1500 м
[Cu hum Ci sp]
+19.3 +3.9 36 +20 +25 тепло 1024.2 1012.4
В 6 70 км 1/1 1500 м
[Cu hum Ci sp]
+20.6 +3.7 33 +21 +25 комфорт 1023.8 1012.1
В 3-10
{10}
70 км 1/1 1500 м
[Cu hum]
+21.0 +3.9 32 +22 +34 комфорт 1023.5 1011.8
В 3 70 км 4/1 1500 м
[Cu hum Ac cuf Ci sp]
+21.0 +3.6 32 +22 +33 комфорт 1022.9 1011.2
СВ 4 70 км 5/3 2000 м
[Sc diur, vesp Ac trans Ci fib]
+20.8 +3.5 32 +21 +28 комфорт 1022.7 1011.0
В 4-7
{10}
70 км 4/1 2000 м
[Sc diur, vesp Ac trans Ci fib]
+21.8 +2.2 27 +22 +29 комфорт 1021.9 1010.2
СЗ 3-5
{9}
70 км 4/0
[Ac lent Ci fib]
+23.4 +0.8 22 +22 +30 комфорт 1021.4 1009.8
В 5 70 км 5/0
[Ac lent Ci fib]
+23.2 +3.2 27 +23 +26 комфорт 1021.0 1009.4
В 6 70 км 5/3 2000 м
[Sc diur, vesp Ac trans]
+21.9 +3.4 30 +22 +23 комфорт 1021.0 1009.4
В 5 70 км 5/1 2000 м
[Sc diur, vesp Ac trans]
+21.4 +2.8 29 +21 +22 комфорт 1020.9 1009.2
В 5 70 км 5/0
[Ac trans]
+20.8 +3.1 31 +21 +22 комфорт 1021.0 1009.3 +15.1 +24.5
СВ 5-7
{10}
70 км 3/0
[Ac trans]
+20.0 +3.3 33 +20 +20 тепло 1021.1 1009.4
СВ 4-5
{7}
70 км 1/0
[Ac trans]
+17.5 +3.1 38 +17 +17 по сезону 1022.0 1010.2
В 3 70 км 1/0
[Ac trans]
+14.8 +3.5 47 +14 +14 по сезону 1022.5 1010.6
В 2-3
{3}
70 км 1/0
[Ac trans]
+13.9 +3.6 50 +14 +14 по сезону 1022.6 1010.6
В 2-3
{3}
70 км 1/0
[Ci fib]
+12.4 +3.7 55 +12 +12 по сезону 1022.6 1010.6
В 3 65 км ясно +10.1 +3.8 65 +8 +8 прохладно 1022.7 1010.6
В 2-3
{3}
65 км 1/0
[Ac trans Ci fib]
+10.1 +3.9 65 +9 +9 по сезону 1022.5 1010.4
В 2-3
{3}
65 км 1/0
[Ac trans Ci fib]
+11.0 +3.6 60 +10 +10 по сезону 1022.3 1010.2
ЮВ 1 65 км 3/0
[Ac trans Ci fib]
+10.7 +3.9 63 +11 +11 по сезону 1022.3 1010.2
ЮЗ 1-2
{2}
65 км 3/0
[Ac trans Ci sp]
+8.2 +4.0 75 +8 +8 по сезону 1022.6 1010.4
штиль 0-2
{2}
65 км 1/0
[Ac trans Ci sp]
+8.1 +4.5 78 +7 +9 по сезону 1022.8 1010.6
ЮЗ 1 65 км 8/0
[Ci sp]
+10.9 +5.5 69 +11 +14 по сезону 1022.9 1010.8 +7.7 +21.1
СВ 3-4
{4}
65 км 8/0
[Ci sp]
+15.0 +5.8 54 +14 +19 тепло 1022.7 1010.8
СВ 4-6
{6}
65 км 9/0
[Ci sp]
+16.3 +2.9 41 +16 +21 тепло 1022.5 1010.6
СВ 3 65 км 9/0
[Ci sp]
+18.2 +2.6 35 +18 +27 тепло 1022.5 1010.7
СВ 3 65 км 5/1 1350 м
[Cu hum Ci sp]
+18.1 +2.1 34 +18 +29 тепло 1022.3 1010.5
ЮВ 3 65 км 5/1 1500 м
[Cu hum Ci sp]
+19.7 +3.1 33 +20 +32 тепло 1021.7 1010.0
В 3 70 км 3/1 2000 м
[Cu hum Ci sp]
+21.1 +1.3 27 +21 +33 комфорт 1021.2 1009.5
В 4 70 км 4/1 2000 м
[Cu hum Ci sp]
+22.3 +2.4 27 +22 +31 комфорт 1020.7 1009.1
ЮВ 3 70 км 5/1 2000 м
[Cu hum Ci sp]
+22.0 +3.4 29 +22 +31 комфорт 1020.4 1008.8
ЮВ 4 70 км 6/1 2000 м
[Cu hum Ci sp]
+22.7 +3.7 29 +23 +28 комфорт 1020.3 1008.7
В 3 70 км 4/1 2000 м
[Cu hum Ci sp]
+22.0 +4.2 31 +22 +26 комфорт 1020.3 1008.7
СВ 5 70 км 5/1 2000 м
[Cu hum Ci sp]
+22.6 +4.7 31 +23 +24 комфорт 1020.2 1008.6
В 3 70 км 5/0
[Ci sp]
+21.4 +4.8 34 +22 +23 комфорт 1020.5 1008.8 +10.9 +23.2
В 4 70 км 6/0
[Ci sp]
+19.9 +5.0 38 +21 +21 комфорт 1020.9 1009.2
В 2 70 км 4/0
[Ci sp]
+16.7 +5.6 48 +17 +17 по сезону 1021.7 1009.8
В 4 70 км 3/0
[Ci fib]
+16.9 +5.1 46 +16 +16 тепло 1022.2 1010.3
В 2-3
{5}
70 км 1/0
[Ci fib]
+14.0 +5.4 56 +14 +14 по сезону 1022.5 1010.5
В 3-4
{4}
70 км 1/0
[Ci fib]
+13.9 +5.4 56 +13 +13 по сезону 1022.6 1010.6
В 2 60 км 1/0
[Ci fib]
+10.1 +5.4 73 +9 +9 по сезону 1022.7 1010.6
В 2-2
{2}
60 км 1/0
[Ci fib]
+9.8 +5.5 75 +8 +8 по сезону 1022.8 1010.6
В 2-3
{3}
60 км ясно +9.7 +5.6 76 +8 +8 по сезону 1022.6 1010.4
ЮВ 2-2
{3}
60 км ясно +8.2 +5.5 83 +6 +6 холодно 1022.5 1010.3
ЮВ 1 60 км 5/0
[Ci sp]
+8.7 +5.8 82 +8 +8 по сезону 1022.6 1010.4
Ю 1-1
{2}
60 км 3/0
[Ci sp]
+10.5 +6.3 75 +10 +11 по сезону 1022.5 1010.4
Ю 1 60 км 3/0
[Ci fib]
+14.8 +7.3 61 +15 +19 тепло 1022.7 1010.8 +7.8 +21.5
В 4-5
{5}
65 км 1/0
[Ci fib]
+18.7 +8.0 50 +19 +23 тепло 1022.6 1010.8
В 2-4
{6}
65 км 1/0
[Ci fib]
+19.9 +7.6 45 +21 +31 комфорт 1022.4 1010.7
В 3 65 км 1/1 1500 м
[Cu hum Ci fib]
+22.0 +7.1 38 +23 +32 комфорт 1022.0 1010.4
СВ 4-7
{7}
60 км 1/1 1500 м
[Cu hum]
+23.0 +5.9 33 +23 +33 комфорт 1021.6 1010.0
В 3-7
{7}
60 км 1/1 2000 м
[Cu hum]
+24.7 +6.0 30 +25 +37 комфорт 1020.9 1009.4
СВ 3 60 км 1/1 2000 м
[Cu hum]
+25.1 +5.4 28 +25 +37 комфорт 1020.5 1009.0
В 3-6
{8}
60 км 1/1 2000 м
[Cu hum]
+25.9 +4.5 25 +25 +37 комфорт 1020.1 1008.6
СВ 2-5
{8}
60 км 1/1 2000 м
[Cu hum Ci fib]
+27.6 +6.4 26 +27 +39 жарко 1019.5 1008.1
Ю 3 60 км 1/1 2000 м
[Cu hum Ci fib]
+27.0 +5.9 26 +26 +33 жарко 1019.0 1007.6
ЮВ 3-5
{6}
60 км 3/1 2000 м
[Cu hum Ci sp]
+27.7 +6.4 26 +27 +31 жарко 1018.6 1007.2
ЮВ 2-4
{6}
60 км 3/0
[Ci sp]
+27.4 +5.0 24 +26 +29 жарко 1018.3 1006.9
СВ 4 60 км 4/0
[Ci sp]
+26.4 +7.2 29 +26 +27 жарко 1018.0 1006.6 +14.9 +28.3
ЮВ 3-4
{5}
65 км 4/0
[Ci sp]
+24.0 +5.5 30 +24 +24 комфорт 1018.4 1006.9
ЮВ 3-3
{3}
65 км 5/0
[Ci sp]
+21.1 +6.1 38 +22 +22 комфорт 1018.9 1007.3
В 1 65 км 5/0
[Ci sp]
+20.0 +5.9 40 +22 +22 комфорт 1019.4 1007.7
В 1-2
{2}
60 км 6/0
[Ci sp]
+17.9 +6.5 47 +19 +19 тепло 1019.6 1007.8
ЮВ 2-2
{2}
60 км 5/0
[Ci sp]
+16.8 +6.4 50 +17 +17 тепло 1019.9 1008.1
ЮВ 2 60 км 4/0
[Ci sp]
+15.8 +6.5 54 +16 +16 тепло 1019.9 1008.0
ЮВ 2-2
{3}
60 км 3/0
[Ci sp]
+11.9 +6.7 70 +11 +11 по сезону 1019.7 1007.7
ЮВ 1-2
{3}
60 км 3/0
[Ci sp]
+11.0 +6.3 73 +11 +11 тепло 1019.7 1007.6
В 3 60 км 4/0
[Ci sp]
+8.8 +6.0 83 +6 +6 холодно 1019.7 1007.5
В 2-3
{4}
60 км 5/0
[Ci sp]
+10.0 +6.6 79 +9 +9 по сезону 1019.7 1007.6
В 2 60 км 5/0
[Ci sp]
+14.8 +7.7 62 +15 +16 тепло 1019.4 1007.5
В 3 60 км 4/0
[Ci sp]
+17.6 +8.0 53 +18 +20 тепло 1019.3 1007.5 +8.6 +26.3
ЮВ 3 60 км 5/0
[Ci sp]
+19.9 +8.6 48 +21 +26 комфорт 1019.1 1007.4
ЮВ 3 60 км 4/0
[Ci sp]
+22.1 +8.1 41 +23 +31 комфорт 1018.8 1007.2
В 3 55 км 4/0
[Ci fib]
+24.1 +8.0 36 +25 +34 комфорт 1018.1 1006.6
ЮВ 3 55 км 6/0
[Ci fib]
+24.6 +6.2 31 +25 +36 комфорт 1017.5 1006.0
Ю 3-6
{7}
55 км 5/0
[Ci sp]
+26.7 +7.1 29 +26 +39 жарко 1016.8 1005.4
ЮЗ 3 60 км 8/1 2000 м
[Cu hum Ci fib]
+26.4 +7.0 29 +26 +37 жарко 1015.9 1004.5
ЮВ 2 60 км 8/1 2000 м
[Cu hum Ci fib]
+28.4 +6.2 24 +27 +39 жарко 1015.1 1003.8
ЮЗ 4 60 км 9/1 2000 м
[Cu med, cong Cs]
+27.8 +3.8 21 +26 +33 жарко 1014.3 1003.0
В 3 60 км 9/1 2000 м
[Cu med, cong Cs]
+28.3 +4.9 23 +27 +33 жарко 1013.5 1002.2
В 3 60 км 9/1 2000 м
[Sc diur, vesp Cs]
+27.8 +5.4 24 +27 +30 жарко 1012.9 1001.6
СВ 2 60 км 9/1 2000 м
[Sc diur, vesp Cs]
+27.5 +6.2 26 +27 +29 жарко 1012.2 1000.9
В 3 60 км 9/1 2000 м
[Sc Cs]
+26.8 +6.4 27 +26 +27 жарко 1011.6 1000.3 +17.6 +29.1
ЮВ 1 70 км 9/1 2000 м
[Sc Cs]
+22.9 +10.3 45 +25 +25 комфорт 1011.5 1000.0
СЗ 1 70 км 9/0
[Ac trans Cs]
+20.4 +9.6 50 +23 +23 комфорт 1011.6 1000.0
В 2 70 км 9/0
[Ac trans Cs]
+19.6 +7.4 45 +21 +21 комфорт 1011.3 999.7
СЗ 2 70 км 6/0
[Ac trans Cs]
+18.5 +9.8 57 +19 +19 тепло 1011.1 999.5
С 1 70 км 8/0
[Ac trans Cs]
+17.3 +9.9 62 +18 +18 тепло 1010.8 999.1
З 3 70 км 8/0
[Ac trans Cs]
+16.4 +10.2 67 +16 +16 тепло 1010.5 998.8
З 3 60 км 8/0
[Ac trans Cs]
+16.1 +10.3 68 +16 +16 тепло 1009.9 998.2
З 2 60 км 8/0
[Ac trans Cs]
+15.5 +9.9 69 +15 +15 тепло 1009.4 997.7
Ю 1 60 км 8/0
[Ac trans Cs]
+14.6 +9.6 72 +15 +15 тепло 1008.8 997.0
В 2-2
{2}
50 км 8/1 2000 м
[Sc Ac trans Ci sp]
+13.7 +9.2 74 +13 +13 тепло 1008.5 996.7
В 1 50 км 8/1 1500 м
[Cu med, cong Ac cast Ci fib]
+15.8 +10.2 69 +17 +17 тепло 1008.1 996.4
ЮВ 1 50 км 8/1 1500 м
[Cu med, cong Ac cast Ci fib]
+17.4 +10.2 63 +18 +20 тепло 1007.7 996.1 +12.1 +26.8
С 2 50 км 6/1 1500 м
[Cu med, cong Ac cast Ci fib]
+19.1 +9.5 54 +20 +24 тепло 1007.4 995.8
З 3 45 км 8/1 1500 м
[Cu med, cong Ac cast Ci fib]
+21.2 +8.5 44 +22 +27 комфорт 1006.9 995.4
СЗ 2 45 км 8/1 1500 м
[Cu med, cong Ac lent Ci fib]
+22.5 +8.9 42 +24 +31 комфорт 1006.4 995.0
СЗ 4 50 км 9/1 1500 м
[Cu med, cong Ac cast Ci fib]
+23.7 +8.3 37 +24 +30 комфорт 1005.9 994.5
З 4 50 км 9/1 1500 м
[Cu med, cong Ac cast Ci fib]
+23.0 +7.4 37 +24 +30 комфорт 1005.4 994.0
СЗ 4 45 км осадки на расстоянии 9/1 1500 м
[Cu med, cong Ac As Cs]
+25.3 +8.5 34 +26 +31 жарко 1004.5 993.2
СЗ 3 50 км 9/1 1500 м
[Cu med, cong Ac As Ci sp]
+23.1 +8.2 38 +24 +31 комфорт 1004.2 992.8
З 3 45 км осадки на расстоянии 9/1 1500 м
[Cb calv Ac As Ci sp]
+23.4 +9.0 40 +25 +30 комфорт 1003.5 992.1
СЗ 5 45 км 8/1 2000 м
[Cu med, cong Ac As Ci sp]
+24.1 +9.0 38 +25 +28 комфорт 1002.5 991.2
СЗ 4 45 км 8/1 2000 м
[Cu med, cong Ac trans Cs]
+24.6 +8.7 36 +25 +27 комфорт 1001.6 990.3
СЗ 4 45 км 8/1 2000 м
[Cu med, cong Ac lent Cs]
+24.7 +8.2 35 +25 +26 комфорт 1001.3 990.0
СЗ 3 50 км 8/1 1500 м
[Cu med, cong Ac lent Ci sp]
+23.2 +8.5 39 +24 +25 комфорт 1001.2 989.8 +17.3 +26.4
СЗ 4 50 км 8/1 1500 м
[Cu med, cong Ac lent Ci sp]
+22.1 +9.6 45 +24 +24 комфорт 1000.8 989.4
СЗ 2 50 км 9/0
[Ac cast Cs]
+19.1 +10.2 56 +20 +20 тепло 1001.0 989.5
СЗ 2 50 км 10/0
[Ac As Cs]
+17.9 +9.6 58 +18 +18 тепло 1000.6 989.1
С 3 50 км 10/0
[Ac As Cs]
+16.6 +8.4 58 +16 +16 тепло 1000.4 988.8
СЗ 3 50 км 10/0
[Ac As Cs]
+17.3 +9.2 59 +17 +17 тепло 999.9 988.3
Местоположение метеостанции Кёльн (Германия): широта 50.87 долгота 7.17 высота над уровнем моря 91 м.
В архиве по умолчанию представлена погода в Кёльне за последнюю неделю. Архивные данные за месяц целиком и за предыдущие месяцы, начиная с января 2011 года, Вы можете получить, выбрав интересующий диапазон дат из раскрывающегося списка и нажав кнопку "Найти!".
*Определитесь, кто Вы:
Внимание! Время в таблицах - всемирное. Для получения местного времени необходимо прибавить поправку, которая равна 1 ч.
Смотрите также архив погоды в соседних городах и на ближайших метеорологических станциях:
Партнеры нашего сайта:      
Пояснения к столбцам:
  • Ветер - указаны скорость ветра в м/с - средняя за 10 мин, порывы в срок и между сроками (в фигурных скобках) и направление, откуда дует ветер: С - северный,
  • СВ - северо-восточный, В - восточный, ЮВ - юго-восточный, Ю - южный, ЮЗ - юго-западный, З - западный, СЗ - северо-западный.
  • Видимость - горизонтальная дальность видимости в метрах или километрах. При видимости от 1 до 10 км при отсутствии осадков обычно наблюдается дымка, при ухудшении видимости до 1 км и менее - туман. В сухую погоду видимость может ухудшаться дымом, пылью или мглою.
  • Явления - указаны атмосферные явления, наблюдавшиеся в срок или в последний час перед сроком; фигурными скобками обозначены явления, наблюдавшиеся между сроками (за 1-3 часа до срока); квадратными скобками обозначены град или гололедные отложения с указанием их диаметра в мм.
  • Облачность - указаны через наклонную черту общая и нижняя облачность в баллах и высота нижней границы облаков в метрах; квадратными скобками обозначены формы облаков: Ci - перистые, Cs - перисто-слоистые, Cc - перисто-кучевые, Ac - высококучевые, As - высокослоистые, Sc - слоисто-кучевые, Ns - слоисто-дождевые, Cu - кучевые, Cb - кучево-дождевые. Подробнее классификацию облаков см. в Атласе облаков (PDF).
  • T - Температура воздуха - температура, измеренная на высоте 2 м над землей.
  • Td - Температура точки росы - температура, при понижении до которой содержащийся в воздухе водяной пар достигнет насыщения.
  • f - Относительная влажность воздуха - влажноcть воздуха, измеренная на высоте 2 м над землей.
  • Te - Эффективная температура - температура, которую ощущает одетый по сезону человек в тени. Характеристика душности погоды. При расчете учитывается влияние влажности воздуха и скорости ветра на теплоощущения человека.
  • Tes - Эффективная температура на солнце - температура, которую ощущает человек, с поправкой на солнечный нагрев. Характеристика знойности погоды. Зависит от высоты солнца над горизонтом, облачности и скорости ветра. Ночью, в пасмурную погоду, а также при ветре 12 м/с и более поправка равна нулю.
  • P - Атмосферное давление - приведенное к уровню моря атмосферное давление.
  • Po - Атмосферное давление - измеренное на уровне метеостанции атмосферное давление.
  • Tmin - Минимальная температура - минимум температуры воздуха на высоте 2 м над землей.
  • Tmax - Максимальная температура - максимум температуры воздуха на высоте 2 м над землей.
  • R - Количество осадков - Количество выпавших осадков за период времени, мм. При наведении курсора мыши на число - период времени, за который выпало указанное количество осадков.
  • R24 - Количество осадков - Количество выпавших осадков за 24 часа, мм.
  • S - Снежный покров - Высота снежного покрова, см. При наведении курсора мыши на число - состояние снежного покрова и степень покрытия местности в баллах.